Regional Weather Roundup
Issued by NWS

Home | Current Version | Previous Version | Text Only | Print | Product List | Glossary On
Versions: 1 2 3 4 5 6 7 8 9 10 11 12 13 14 15 16 17 18 19 20 21 22 23 24 25 26 27 28 29 30 31 32 33 34 35 36 37 38 39 40 41 42 43 44 45 46 47 48 49 50
000
ASUS43 KBIS 280810
RWRND

NORTH DAKOTA REGIONAL WEATHER ROUNDUP
NATIONAL WEATHER SERVICE BISMARCK ND
300 AM CDT FRI APR 28 2017

NOTE: "FAIR" INDICATES FEW OR NO CLOUDS BELOW 12,000 FEET WITH NO
SIGNIFICANT WEATHER AND/OR OBSTRUCTIONS TO VISIBILITY.


NDZ001>003-009>011-017-280900-
NORTHWEST NORTH DAKOTA

CITY           SKY/WX    TMP DP  RH WIND       PRES   REMARKS
WILLISTON      FAIR      31  20  63 CALM      29.90R
MINOT          FAIR      29  24  82 NW6       29.91R
MINOT AFB      CLEAR     27  23  86 W3        29.91R
$$

NDZ018>021-031>035-040>046-280900-
SOUTHWEST NORTH DAKOTA

CITY           SKY/WX    TMP DP  RH WIND       PRES   REMARKS
BISMARCK       FAIR      30  26  85 S3        29.91R
DICKINSON      FAIR      28  16  60 E8        29.85R WCI  20
GARRISON         N/A     26  22  84 CALM      29.90R
HETTINGER ARPT CLOUDY    28  22  78 E7        29.85R
$$

NDZ004>008-012>016-024-026-027-054-280900-
NORTHEAST NORTH DAKOTA

CITY           SKY/WX    TMP DP  RH WIND       PRES   REMARKS
GRAND FORKS    CLOUDY    33  29  85 NW6       29.85R
GRND FRKS AFB  CLEAR     28  26  90 NW5       29.86R
DEVILS LAKE    FAIR      30  26  85 N10       29.88R
$$

NDZ022-023-025-028>030-036>039-047>053-280900-
SOUTHEAST NORTH DAKOTA

CITY           SKY/WX    TMP DP  RH WIND       PRES   REMARKS
FARGO          CLEAR     30  26  85 NW8       29.85R
JAMESTOWN      FAIR      30  27  88 W5        29.87R
$$





USA.gov is the U.S. government's official web portal to all federal, state and local government web resources and services.